{"data":{"norad_id":62231,"intl_designator":"2024-231P","name":"STARLINK-32650","alt_names":[],"object_type":"PAYLOAD","status":"ACTIVE","operator":null,"country":"US","launch_date":"2024-12-05","launch_site_code":"AFWTR","launch_vehicle":null,"mission":null,"orbit_class":"UNKNOWN","rcs_meters":null,"size_class":null,"mass_kg":null,"dimensions":null,"purposes":["comms"],"wikipedia_slug":null,"has_3d_model":false,"image_url":null,"decayed_at":null,"tle_current":{"epoch":"2026-09-21T20:08:24.896256Z","epoch_age_seconds":62521,"freshness":"FRESH","line1":"1 62231U 24231P   26264.83917704  .00013581  00000+0  44845-3 0  9990","line2":"2 62231  53.1583  27.5515 0001116  82.6587 277.4542 15.31712120101816","mean_motion":15.3171212,"eccentricity":0.0001116,"inclination_deg":53.1583,"raan_deg":27.5515,"arg_perigee_deg":82.6587,"mean_anomaly_deg":277.4542,"bstar":0.00044845,"rev_number":10181,"period_min":94.012444061616,"perigee_km":469.93953573387,"apogee_km":471.46819701524,"semimajor_km":6848.8408663746,"source":"CELESTRAK","updated_at":"2026-09-22T09:00:49.564076Z"}}}